Date String (YYYY-MM-DD hh:mm:ss) UTC,Instrument flags,Ambient pressure (hPa),Sample flow (lpm),Bypass flow (lpm),Sample temperature (°C),Ambient temperature (°C),ASC tube jacket temperature (°C),LED temperature (°C),Box temperature (°C),Sample RH (%),Span deviation,Mass concentration (μg/m³),Mass concentration (μg/m³),Mass concentration (μg/m³)
DateTimeUTC,F1_M11,P_M11,Q1_M11,Q2_M11,T1_M11,T2_M11,T3_M11,T4_M11,T5_M11,U1_M11,ZSPAN_M11,X0_M11,X2_M11,X1_M11
2022-02-17 00:00:00,,0819.7,5.00,0.00,22.3,21.6,00.0,31.4,23.9,15.3,0000.0,0007.38,0004.89,0004.60
2022-02-17 00:01:00,,0819.7,5.00,0.00,22.2,21.5,00.0,31.4,23.9,15.3,0000.0,0007.23,0004.79,0004.50
2022-02-17 00:02:00,,0819.8,5.02,0.00,22.2,21.4,00.0,31.3,23.8,15.3,0000.0,0006.96,0004.66,0004.38
2022-02-17 00:03:00,,0819.8,4.99,0.00,22.2,21.4,00.0,31.3,23.8,15.3,0000.0,0006.75,0004.54,0004.25
2022-02-17 00:04:00,,0819.8,5.01,0.00,22.1,21.3,00.0,31.3,23.7,15.3,0000.0,0006.37,0004.38,0004.10
2022-02-17 00:05:00,,0819.8,5.00,0.00,22.1,21.3,00.0,31.3,23.7,15.3,0000.0,0006.05,0004.22,0003.95
2022-02-17 00:06:00,,0819.9,4.99,0.00,22.1,21.8,00.0,31.3,23.8,15.2,0000.0,0005.68,0004.06,0003.81
2022-02-17 00:07:00,,0819.9,5.01,0.00,22.2,22.6,00.0,31.3,24.1,15.1,0000.0,0005.35,0003.93,0003.68
2022-02-17 00:08:00,,0819.9,4.99,0.00,22.4,23.1,00.0,31.3,24.3,15.0,0000.0,0005.17,0003.84,0003.57
2022-02-17 00:09:00,,0819.9,5.01,0.00,22.4,22.9,00.0,31.3,24.3,14.9,0000.0,0005.00,0003.76,0003.50
2022-02-17 00:10:00,,0819.9,4.99,0.00,22.4,22.6,00.0,31.3,24.2,14.8,0000.0,0004.79,0003.68,0003.47
2022-02-17 00:11:00,,0819.9,5.00,0.00,22.4,22.3,00.0,31.3,24.1,14.8,0000.0,0004.66,0003.64,0003.44
2022-02-17 00:12:00,,0819.9,5.01,0.00,22.3,22.1,00.0,31.3,24.0,14.8,0000.0,0004.54,0003.58,0003.38
2022-02-17 00:13:00,,0819.9,5.01,0.00,22.3,21.9,00.0,31.3,24.0,14.8,0000.0,0004.57,0003.53,0003.33
2022-02-17 00:14:00,,0819.9,5.00,0.00,22.3,21.8,00.0,31.3,23.9,14.9,0000.0,0004.47,0003.49,0003.30
2022-02-17 00:15:00,,0819.9,4.99,0.00,22.2,21.7,00.0,31.3,23.9,14.9,0000.0,0004.38,0003.45,0003.27
2022-02-17 00:16:00,,0820.0,5.01,0.00,22.2,21.6,00.0,31.3,23.8,14.9,0000.0,0004.21,0003.39,0003.24
2022-02-17 00:17:00,,0820.0,4.99,0.00,22.1,21.5,00.0,31.3,23.8,14.9,0000.0,0004.21,0003.36,0003.20
2022-02-17 00:18:00,,0820.0,5.01,0.00,22.1,21.4,00.0,31.3,23.7,14.9,0000.0,0004.12,0003.32,0003.15
2022-02-17 00:19:00,,0820.1,5.01,0.00,22.1,21.3,00.0,31.2,23.7,14.9,0000.0,0003.98,0003.25,0003.10
2022-02-17 00:20:00,,0820.2,4.99,0.00,22.0,21.3,00.0,31.2,23.7,14.9,0000.0,0003.99,0003.22,0003.05
2022-02-17 00:21:00,,0820.2,5.00,0.00,22.0,21.2,00.0,31.2,23.6,15.0,0000.0,0003.97,0003.21,0003.02
2022-02-17 00:22:00,,0820.2,5.02,0.00,22.0,21.2,00.0,31.2,23.6,15.0,0000.0,0003.92,0003.18,0003.00
2022-02-17 00:23:00,,0820.2,4.99,0.00,22.0,21.7,00.0,31.2,23.8,14.9,0000.0,0003.97,0003.20,0003.01
2022-02-17 00:24:00,,0820.3,5.01,0.00,22.2,22.5,00.0,31.2,24.0,14.8,0000.0,0003.86,0003.20,0003.03
2022-02-17 00:25:00,,0820.3,4.99,0.00,22.3,23.1,00.0,31.3,24.3,14.7,0000.0,0003.86,0003.20,0003.04
2022-02-17 00:26:00,,0820.3,4.99,0.00,22.4,22.9,00.0,31.3,24.3,14.7,0000.0,0003.96,0003.23,0003.06
2022-02-17 00:27:00,,0820.4,5.00,0.00,22.4,22.6,00.0,31.3,24.2,14.7,0000.0,0004.01,0003.26,0003.10
2022-02-17 00:28:00,,0820.4,5.00,0.00,22.3,22.4,00.0,31.3,24.1,14.7,0000.0,0003.99,0003.27,0003.13
2022-02-17 00:29:00,,0820.3,5.00,0.00,22.3,22.2,00.0,31.3,24.0,14.7,0000.0,0004.03,0003.30,0003.17
2022-02-17 00:30:00,,0820.3,4.99,0.00,22.3,22.0,00.0,31.3,24.0,14.7,0000.0,0004.15,0003.34,0003.20
2022-02-17 00:31:00,,0820.4,5.00,0.00,22.3,21.9,00.0,31.3,23.9,14.7,0000.0,0004.29,0003.39,0003.23
2022-02-17 00:32:00,,0820.5,5.00,0.00,22.2,21.7,00.0,31.3,23.9,14.8,0000.0,0004.32,0003.40,0003.25
2022-02-17 00:33:00,,0820.5,4.99,0.00,22.2,21.6,00.0,31.3,23.8,14.8,0000.0,0004.34,0003.43,0003.27
2022-02-17 00:34:00,,0820.6,5.01,0.00,22.1,21.5,00.0,31.2,23.8,14.9,0000.0,0004.29,0003.43,0003.28
2022-02-17 00:35:00,,0820.6,5.00,0.00,22.1,21.4,00.0,31.2,23.7,14.9,0000.0,0004.31,0003.44,0003.29
2022-02-17 00:36:00,,0820.6,5.00,0.00,22.1,21.4,00.0,31.2,23.7,14.9,0000.0,0004.34,0003.45,0003.30
2022-02-17 00:37:00,,0820.6,5.01,0.00,22.1,21.3,00.0,31.2,23.7,15.0,0000.0,0004.25,0003.42,0003.29
2022-02-17 00:38:00,,0820.7,4.98,0.00,22.0,21.3,00.0,31.2,23.7,15.0,0000.0,0004.25,0003.42,0003.29
2022-02-17 00:39:00,,0820.7,5.00,0.00,22.0,21.2,00.0,31.2,23.6,15.0,0000.0,0004.30,0003.43,0003.28
2022-02-17 00:40:00,,0820.7,5.00,0.00,22.0,21.2,00.0,31.1,23.6,15.0,0000.0,0004.29,0003.41,0003.25
2022-02-17 00:41:00,,0820.7,5.00,0.00,22.0,21.3,00.0,31.1,23.6,15.0,0000.0,0004.20,0003.38,0003.23
2022-02-17 00:42:00,,0820.8,5.00,0.00,22.0,22.0,00.0,31.2,23.8,14.9,0000.0,0004.02,0003.34,0003.20
2022-02-17 00:43:00,,0820.9,5.00,0.00,22.2,22.8,00.0,31.2,24.1,14.8,0000.0,0003.99,0003.32,0003.18
2022-02-17 00:44:00,,0820.8,5.00,0.00,22.3,23.0,00.0,31.2,24.3,14.7,0000.0,0004.01,0003.32,0003.16
2022-02-17 00:45:00,,0820.8,5.00,0.00,22.3,22.7,00.0,31.2,24.2,14.7,0000.0,0003.95,0003.29,0003.14
2022-02-17 00:46:00,,0820.9,5.00,0.00,22.3,22.4,00.0,31.2,24.2,14.7,0000.0,0003.98,0003.28,0003.11
2022-02-17 00:47:00,,0821.0,5.00,0.00,22.3,22.2,00.0,31.3,24.1,14.7,0000.0,0003.94,0003.25,0003.06
2022-02-17 00:48:00,,0821.0,5.00,0.00,22.3,22.1,00.0,31.2,24.0,14.7,0000.0,0003.90,0003.23,0003.01
2022-02-17 00:49:00,,0821.0,5.01,0.00,22.2,21.9,00.0,31.2,23.9,14.7,0000.0,0003.87,0003.22,0002.99
2022-02-17 00:50:00,,0821.0,4.99,0.00,22.2,21.7,00.0,31.2,23.9,14.7,0000.0,0003.78,0003.18,0002.94
2022-02-17 00:51:00,,0821.0,5.01,0.00,22.2,21.6,00.0,31.2,23.8,14.7,0000.0,0003.66,0003.13,0002.87
2022-02-17 00:52:00,,0821.1,5.00,0.00,22.1,21.5,00.0,31.2,23.8,14.8,0000.0,0003.57,0003.07,0002.80
2022-02-17 00:53:00,,0821.1,5.00,0.00,22.1,21.4,00.0,31.2,23.7,14.8,0000.0,0003.43,0002.97,0002.72
2022-02-17 00:54:00,,0821.1,5.01,0.00,22.0,21.4,00.0,31.2,23.7,14.8,0000.0,0003.28,0002.86,0002.65
2022-02-17 00:55:00,,0821.1,4.99,0.00,22.0,21.3,00.0,31.2,23.6,14.7,0000.0,0003.17,0002.75,0002.54
2022-02-17 00:56:00,,0821.2,5.00,0.00,22.0,21.2,00.0,31.1,23.6,14.7,0000.0,0003.05,0002.64,0002.44
2022-02-17 00:57:00,,0821.2,5.01,0.00,22.0,21.7,00.0,31.1,23.7,14.7,0000.0,0002.85,0002.52,0002.35
2022-02-17 00:58:00,,0821.3,5.00,0.00,22.2,22.6,00.0,31.2,24.0,14.6,0000.0,0002.67,0002.41,0002.25
2022-02-17 00:59:00,,0821.3,5.00,0.00,22.3,23.2,00.0,31.2,24.3,14.5,0000.0,0002.58,0002.32,0002.16
